Date String (YYYY-MM-DD hh:mm:ss) UTC,Instrument flags,absolute air pressure of the measurement (hPa),sample flow rate (lpm),inlet stack bypass flow (lpm),air temperature of the measurement (°C),ambient temperature measured by the external sensor (°C),aerosol sample conditioner tube jacket temperature (°C),OPC LED temperature (°C),internal box temperature (°C),relative humidity of the measurement (%),span deviation,mass concentration of particles derived from Lorenz-Mie calculation of OPC scattering (μg/m³),mass concentration of particles derived from Lorenz-Mie calculation of OPC scattering (μg/m³),mass concentration of particles derived from Lorenz-Mie calculation of OPC scattering (μg/m³)
DateTimeUTC,F1_M11,P_M11,Q1_M11,Q2_M11,T1_M11,T2_M11,T3_M11,T4_M11,T5_M11,U1_M11,ZSPAN_M11,X2_M11,X0_M11,X1_M11
2023-11-09 00:00:00,SystemResetWarning,0833.8,5.00,000.00,022.9,021.8,000.0,031.3,024.3,22.5,0000.0,0003.59,0005.11,0003.36
2023-11-09 00:01:00,SystemResetWarning,0833.8,5.00,000.00,022.9,021.8,000.0,031.3,024.3,22.6,0000.0,0003.64,0005.10,0003.38
2023-11-09 00:02:00,SystemResetWarning,0833.8,5.00,000.00,022.9,021.8,000.0,031.3,024.2,22.6,0000.0,0003.66,0005.26,0003.39
2023-11-09 00:03:00,SystemResetWarning,0833.8,5.00,000.00,022.9,021.8,000.0,031.3,024.2,22.5,0000.0,0003.65,0005.19,0003.40
2023-11-09 00:04:00,SystemResetWarning,0833.8,5.00,000.00,022.9,021.8,000.0,031.3,024.2,22.4,0000.0,0003.66,0006.09,0003.41
2023-11-09 00:05:00,SystemResetWarning,0833.9,5.00,000.00,022.9,021.8,000.0,031.3,024.2,22.4,0000.0,0003.67,0006.44,0003.41
2023-11-09 00:06:00,SystemResetWarning,0833.8,5.00,000.00,022.8,021.7,000.0,031.3,024.2,22.4,0000.0,0003.66,0007.24,0003.40
2023-11-09 00:07:00,SystemResetWarning,0833.8,5.00,000.00,022.8,021.7,000.0,031.3,024.2,22.3,0000.0,0003.67,0007.76,0003.39
2023-11-09 00:08:00,SystemResetWarning,0833.8,5.00,000.00,022.8,021.7,000.0,031.3,024.2,22.3,0000.0,0003.68,0008.18,0003.37
2023-11-09 00:09:00,SystemResetWarning,0833.8,5.00,000.00,022.8,021.7,000.0,031.3,024.2,22.4,0000.0,0003.66,0008.17,0003.35
2023-11-09 00:10:00,SystemResetWarning,0833.8,5.00,000.00,022.8,021.7,000.0,031.3,024.2,22.4,0000.0,0003.64,0008.15,0003.33
2023-11-09 00:11:00,SystemResetWarning,0833.8,5.00,000.00,022.8,021.7,000.0,031.3,024.2,22.3,0000.0,0003.61,0008.10,0003.32
2023-11-09 00:12:00,SystemResetWarning,0833.9,5.00,000.00,022.8,021.7,000.0,031.3,024.2,22.2,0000.0,0003.61,0008.10,0003.31
2023-11-09 00:13:00,SystemResetWarning,0833.9,5.00,000.00,022.8,021.7,000.0,031.2,024.2,22.2,0000.0,0003.60,0008.07,0003.31
2023-11-09 00:14:00,SystemResetWarning,0833.9,5.00,000.00,022.8,021.7,000.0,031.3,024.2,22.1,0000.0,0003.59,0008.08,0003.30
2023-11-09 00:15:00,SystemResetWarning,0833.9,5.00,000.00,022.8,021.7,000.0,031.3,024.1,22.2,0000.0,0003.60,0007.66,0003.30
2023-11-09 00:16:00,SystemResetWarning,0833.9,5.00,000.00,022.8,021.7,000.0,031.2,024.1,22.2,0000.0,0003.62,0007.50,0003.30
2023-11-09 00:17:00,SystemResetWarning,0833.9,5.00,000.00,022.8,021.7,000.0,031.2,024.2,22.3,0000.0,0003.62,0006.88,0003.31
2023-11-09 00:18:00,SystemResetWarning,0833.9,5.00,000.00,022.8,021.7,000.0,031.2,024.2,22.3,0000.0,0003.64,0005.98,0003.34
2023-11-09 00:19:00,SystemResetWarning,0833.9,5.00,000.00,022.8,021.7,000.0,031.2,024.2,22.2,0000.0,0003.66,0005.40,0003.38
2023-11-09 00:20:00,SystemResetWarning,0833.8,5.00,000.00,022.8,021.7,000.0,031.2,024.2,22.2,0000.0,0003.69,0005.82,0003.41
2023-11-09 00:21:00,SystemResetWarning,0833.9,5.00,000.00,022.8,021.7,000.0,031.2,024.2,22.2,0000.0,0003.71,0006.00,0003.43
2023-11-09 00:22:00,SystemResetWarning,0833.8,5.00,000.00,022.8,021.7,000.0,031.2,024.1,22.1,0000.0,0003.73,0006.02,0003.44
2023-11-09 00:23:00,SystemResetWarning,0833.8,5.00,000.00,022.8,021.7,000.0,031.2,024.1,22.0,0000.0,0003.72,0005.99,0003.45
2023-11-09 00:24:00,SystemResetWarning,0833.8,5.00,000.00,022.8,021.6,000.0,031.2,024.1,22.0,0000.0,0003.73,0005.99,0003.45
2023-11-09 00:25:00,SystemResetWarning,0833.8,5.00,000.00,022.8,021.6,000.0,031.2,024.1,21.9,0000.0,0003.79,0006.16,0003.47
2023-11-09 00:26:00,SystemResetWarning,0833.8,5.00,000.00,022.8,021.6,000.0,031.2,024.1,21.9,0000.0,0003.78,0006.07,0003.48
2023-11-09 00:27:00,SystemResetWarning,0833.8,5.00,000.00,022.8,021.6,000.0,031.2,024.1,21.8,0000.0,0003.79,0006.31,0003.50
2023-11-09 00:28:00,SystemResetWarning,0833.9,5.00,000.00,022.7,021.6,000.0,031.2,024.0,21.9,0000.0,0003.79,0006.41,0003.50
2023-11-09 00:29:00,SystemResetWarning,0834.0,5.00,000.00,022.7,021.6,000.0,031.2,024.1,22.0,0000.0,0003.77,0006.49,0003.48
2023-11-09 00:30:00,SystemResetWarning,0834.0,4.99,000.00,022.7,021.6,000.0,031.2,024.1,21.9,0000.0,0003.78,0006.55,0003.47
2023-11-09 00:31:00,SystemResetWarning,0834.0,4.99,000.00,022.7,021.6,000.0,031.2,024.1,21.8,0000.0,0003.76,0006.06,0003.46
2023-11-09 00:32:00,SystemResetWarning,0834.0,5.00,000.00,022.7,021.6,000.0,031.2,024.0,21.7,0000.0,0003.72,0005.73,0003.44
2023-11-09 00:33:00,SystemResetWarning,0834.0,5.00,000.00,022.7,021.6,000.0,031.2,024.1,21.7,0000.0,0003.72,0005.84,0003.44
2023-11-09 00:34:00,SystemResetWarning,0834.0,5.00,000.00,022.7,021.6,000.0,031.2,024.1,21.7,0000.0,0003.71,0006.24,0003.44
2023-11-09 00:35:00,SystemResetWarning,0834.0,5.01,000.00,022.7,021.6,000.0,031.1,024.0,21.8,0000.0,0003.70,0006.47,0003.43
2023-11-09 00:36:00,SystemResetWarning,0834.0,5.01,000.00,022.7,021.6,000.0,031.1,024.0,21.9,0000.0,0003.67,0006.39,0003.41
2023-11-09 00:37:00,SystemResetWarning,0834.0,5.01,000.00,022.7,021.6,000.0,031.1,024.0,21.8,0000.0,0003.69,0006.46,0003.40
2023-11-09 00:38:00,SystemResetWarning,0833.9,4.99,000.00,022.7,021.6,000.0,031.1,024.0,21.7,0000.0,0003.69,0006.39,0003.38
2023-11-09 00:39:00,SystemResetWarning,0833.9,4.99,000.00,022.7,021.6,000.0,031.1,024.0,21.6,0000.0,0003.69,0006.25,0003.38
2023-11-09 00:40:00,SystemResetWarning,0833.9,5.00,000.00,022.7,021.6,000.0,031.1,024.0,21.6,0000.0,0003.68,0006.16,0003.37
2023-11-09 00:41:00,SystemResetWarning,0833.9,4.99,000.00,022.7,021.5,000.0,031.1,024.0,21.5,0000.0,0003.65,0005.94,0003.36
2023-11-09 00:42:00,SystemResetWarning,0833.9,5.02,000.00,022.6,021.5,000.0,031.1,023.9,21.5,0000.0,0003.64,0005.92,0003.34
2023-11-09 00:43:00,SystemResetWarning,0833.9,5.00,000.00,022.6,021.5,000.0,031.1,024.0,21.2,0000.0,0003.64,0006.02,0003.33
2023-11-09 00:44:00,SystemResetWarning,0833.9,4.99,000.00,022.6,021.5,000.0,031.1,023.9,21.5,0000.0,0003.67,0006.52,0003.33
2023-11-09 00:45:00,SystemResetWarning,0833.9,4.99,000.00,022.6,021.5,000.0,031.1,023.9,21.6,0000.0,0003.68,0006.72,0003.33
2023-11-09 00:46:00,SystemResetWarning,0833.9,5.01,000.00,022.6,021.5,000.0,031.1,023.9,21.6,0000.0,0003.69,0006.04,0003.34
2023-11-09 00:47:00,SystemResetWarning,0834.0,5.02,000.00,022.6,021.5,000.0,031.1,023.9,21.8,0000.0,0003.68,0005.96,0003.33
2023-11-09 00:48:00,SystemResetWarning,0834.0,5.00,000.00,022.6,021.5,000.0,031.1,023.9,21.9,0000.0,0003.69,0006.15,0003.34
2023-11-09 00:49:00,SystemResetWarning,0834.0,4.99,000.00,022.6,021.4,000.0,031.1,023.9,22.1,0000.0,0003.67,0006.09,0003.34
2023-11-09 00:50:00,SystemResetWarning,0834.0,5.00,000.00,022.6,021.4,000.0,031.0,023.9,22.2,0000.0,0003.64,0005.93,0003.34
2023-11-09 00:51:00,SystemResetWarning,0834.0,4.99,000.00,022.6,021.4,000.0,031.0,023.9,22.2,0000.0,0003.62,0005.85,0003.33
2023-11-09 00:52:00,SystemResetWarning,0833.9,5.00,000.00,022.6,021.4,000.0,031.0,023.9,22.3,0000.0,0003.61,0005.81,0003.32
2023-11-09 00:53:00,SystemResetWarning,0833.9,5.00,000.00,022.5,021.4,000.0,031.0,023.9,22.3,0000.0,0003.59,0005.72,0003.32
2023-11-09 00:54:00,SystemResetWarning,0833.9,5.00,000.00,022.5,021.4,000.0,031.0,023.8,22.2,0000.0,0003.59,0005.68,0003.33
2023-11-09 00:55:00,SystemResetWarning,0834.0,5.00,000.00,022.5,021.4,000.0,031.0,023.8,22.3,0000.0,0003.58,0005.54,0003.33
2023-11-09 00:56:00,SystemResetWarning,0834.0,5.00,000.00,022.5,021.4,000.0,031.0,023.8,22.3,0000.0,0003.54,0004.79,0003.32
2023-11-09 00:57:00,SystemResetWarning,0834.0,5.00,000.00,022.5,021.4,000.0,031.0,023.8,22.3,0000.0,0003.53,0004.77,0003.31
2023-11-09 00:58:00,SystemResetWarning,0834.0,5.00,000.00,022.5,021.4,000.0,031.0,023.8,22.3,0000.0,0003.52,0004.85,0003.32
2023-11-09 00:59:00,SystemResetWarning,0834.0,5.00,000.00,022.5,021.3,000.0,031.0,023.8,22.3,0000.0,0003.53,0005.82,0003.31
